• In Uzbekistan
  • List of Countries
  • For 7 days
  • Water Temperature
  • Weather Map
  • Weather Widgets
  • user-avatar
    Login

    Hourly Weather Asadabad

    Today, 23 February, Sunday

    Time Temperature Precipitation Wind Pressure Humidity
    00:00 +9°C° 0 mm 2 mps 661 mmHg 48%
    01:00 +9°C° 0 mm 2 mps 661 mmHg 46%
    02:00 +9°C° 0 mm 3 mps 660 mmHg 44%
    03:00 +9°C° 0 mm 3 mps 660 mmHg 43%
    04:00 +8°C° 0 mm 3 mps 660 mmHg 43%
    05:00 +8°C° 0 mm 3 mps 659 mmHg 42%
    06:00 +8°C° 0 mm 3 mps 660 mmHg 41%
    07:00 +9°C° 0 mm 3 mps 660 mmHg 40%
    08:00 +9°C° 0 mm 3 mps 660 mmHg 39%
    09:00 +11°C° 0 mm 3 mps 660 mmHg 35%
    10:00 +14°C° 0 mm 2 mps 661 mmHg 30%
    11:00 +16°C° 0 mm 1 mps 661 mmHg 26%
    12:00 +18°C° 0 mm 1 mps 661 mmHg 26%
    13:00 +18°C° 0 mm 1 mps 661 mmHg 26%
    14:00 +19°C° 0 mm 1 mps 660 mmHg 26%
    15:00 +18°C° 0 mm 2 mps 660 mmHg 28%
    16:00 +18°C° 0 mm 2 mps 660 mmHg 30%
    17:00 +17°C° 0 mm 2 mps 660 mmHg 32%
    18:00 +16°C° 0 mm 1 mps 660 mmHg 39%
    19:00 +14°C° 0 mm 1 mps 660 mmHg 46%
    20:00 +11°C° 0 mm 0 mps 659 mmHg 53%
    21:00 +12°C° 0 mm 1 mps 659 mmHg 51%
    22:00 +11°C° 0 mm 1 mps 660 mmHg 50%
    23:00 +10°C° 0 mm 2 mps 660 mmHg 48%

    Tomorrow, 24 February, Monday

    Time Temperature Precipitation Wind Pressure Humidity
    00:00 +10°C° 0 mm 2 mps 659 mmHg 47%
    01:00 +9°C° 0 mm 2 mps 659 mmHg 46%
    02:00 +9°C° 0 mm 3 mps 658 mmHg 45%
    03:00 +9°C° 0 mm 3 mps 658 mmHg 44%
    04:00 +8°C° 0 mm 3 mps 657 mmHg 43%
    05:00 +8°C° 0 mm 3 mps 657 mmHg 42%
    06:00 +9°C° 0 mm 3 mps 657 mmHg 41%
    07:00 +9°C° 0 mm 3 mps 658 mmHg 40%
    08:00 +9°C° 0 mm 3 mps 658 mmHg 39%
    09:00 +12°C° 0 mm 2 mps 658 mmHg 35%
    10:00 +14°C° 0 mm 2 mps 659 mmHg 30%
    11:00 +16°C° 0 mm 1 mps 659 mmHg 26%
    12:00 +18°C° 0 mm 1 mps 658 mmHg 26%
    13:00 +18°C° 0 mm 1 mps 658 mmHg 26%
    14:00 +18°C° 0 mm 2 mps 658 mmHg 26%
    15:00 +18°C° 0 mm 2 mps 657 mmHg 28%
    16:00 +17°C° 0 mm 2 mps 657 mmHg 29%
    17:00 +17°C° 0 mm 2 mps 657 mmHg 30%
    18:00 +15°C° 0 mm 1 mps 657 mmHg 38%
    19:00 +14°C° 0 mm 1 mps 657 mmHg 45%
    20:00 +11°C° 0 mm 0 mps 657 mmHg 52%
    21:00 +12°C° 0 mm 1 mps 657 mmHg 50%
    22:00 +11°C° 0 mm 1 mps 657 mmHg 48%
    23:00 +10°C° 0 mm 2 mps 657 mmHg 47%

    Day after tomorrow, 25 February, Tuesday

    Time Temperature Precipitation Wind Pressure Humidity
    00:00 +10°C° 0 mm 2 mps 657 mmHg 46%
    01:00 +9°C° 0 mm 2 mps 657 mmHg 44%
    02:00 +9°C° 0 mm 2 mps 656 mmHg 43%
    03:00 +9°C° 0 mm 2 mps 656 mmHg 43%
    04:00 +8°C° 0 mm 3 mps 656 mmHg 43%
    05:00 +8°C° 0 mm 3 mps 656 mmHg 42%
    06:00 +9°C° 0 mm 3 mps 656 mmHg 41%
    07:00 +9°C° 0 mm 3 mps 657 mmHg 41%
    08:00 +10°C° 0 mm 3 mps 657 mmHg 40%
    09:00 +12°C° 0 mm 2 mps 657 mmHg 35%
    10:00 +14°C° 0 mm 2 mps 658 mmHg 31%
    11:00 +16°C° 0 mm 1 mps 658 mmHg 27%
    12:00 +16°C° 0 mm 1 mps 657 mmHg 27%
    13:00 +17°C° 0 mm 2 mps 657 mmHg 27%
    14:00 +18°C° 0 mm 2 mps 657 mmHg 27%
    15:00 +17°C° 0 mm 2 mps 657 mmHg 28%
    16:00 +17°C° 0 mm 2 mps 657 mmHg 29%
    17:00 +17°C° 0 mm 2 mps 657 mmHg 30%
    18:00 +15°C° 0 mm 1 mps 657 mmHg 36%
    19:00 +14°C° 0 mm 1 mps 657 mmHg 42%
    20:00 +11°C° 0 mm 0 mps 657 mmHg 48%
    21:00 +12°C° 0 mm 1 mps 657 mmHg 47%
    22:00 +11°C° 0 mm 1 mps 657 mmHg 46%
    23:00 +10°C° 0 mm 2 mps 657 mmHg 44%

    26 February, Wednesday

    Time Temperature Precipitation Wind Pressure Humidity
    00:00 +10°C° 0 mm 2 mps 657 mmHg 43%
    01:00 +10°C° 0 mm 2 mps 657 mmHg 41%
    02:00 +9°C° 0 mm 3 mps 657 mmHg 40%
    03:00 +9°C° 0 mm 3 mps 657 mmHg 38%
    04:00 +9°C° 0 mm 3 mps 656 mmHg 35%
    05:00 +8°C° 0 mm 3 mps 656 mmHg 33%
    06:00 +9°C° 0 mm 3 mps 656 mmHg 32%
    07:00 +9°C° 0 mm 3 mps 657 mmHg 31%
    08:00 +10°C° 0 mm 3 mps 657 mmHg 30%
    09:00 +13°C° 0 mm 2 mps 657 mmHg 26%
    10:00 +15°C° 0 mm 2 mps 658 mmHg 22%
    11:00 +18°C° 0 mm 1 mps 658 mmHg 18%
    12:00 +19°C° 0 mm 1 mps 658 mmHg 18%
    13:00 +19°C° 0 mm 1 mps 658 mmHg 18%
    14:00 +20°C° 0 mm 1 mps 657 mmHg 18%
    15:00 +19°C° 0 mm 2 mps 658 mmHg 20%
    16:00 +19°C° 0 mm 2 mps 658 mmHg 22%
    17:00 +18°C° 0 mm 2 mps 658 mmHg 24%
    18:00 +18°C° 0 mm 1 mps 657 mmHg 30%
    19:00 +15°C° 0 mm 1 mps 657 mmHg 37%
    20:00 +12°C° 0 mm 0 mps 657 mmHg 43%
    21:00 +12°C° 0 mm 0 mps 657 mmHg 42%
    22:00 +13°C° 0 mm 1 mps 657 mmHg 41%
    23:00 +13°C° 0 mm 1 mps 657 mmHg 39%

    27 February, Thursday

    Time Temperature Precipitation Wind Pressure Humidity
    00:00 +13°C° 0 mm 1 mps 657 mmHg 39%
    01:00 +12°C° 0 mm 1 mps 657 mmHg 38%
    02:00 +12°C° 0 mm 2 mps 657 mmHg 38%
    03:00 +12°C° 0 mm 2 mps 656 mmHg 38%
    04:00 +10°C° 0 mm 2 mps 656 mmHg 38%
    05:00 +10°C° 0 mm 2 mps 655 mmHg 38%
    06:00 +10°C° 0 mm 2 mps 656 mmHg 38%
    07:00 +12°C° 0 mm 2 mps 656 mmHg 38%
    08:00 +13°C° 0 mm 2 mps 657 mmHg 38%
    09:00 +15°C° 0 mm 2 mps 657 mmHg 33%
    10:00 +16°C° 0 mm 1 mps 658 mmHg 28%
    11:00 +19°C° 0 mm 1 mps 658 mmHg 23%
    12:00 +20°C° 0 mm 1 mps 658 mmHg 23%
    13:00 +19°C° 0 mm 2 mps 658 mmHg 22%
    14:00 +20°C° 0 mm 2 mps 657 mmHg 22%
    15:00 +20°C° 0 mm 2 mps 657 mmHg 23%
    16:00 +19°C° 0 mm 2 mps 657 mmHg 24%
    17:00 +19°C° 0 mm 2 mps 657 mmHg 25%
    18:00 +18°C° 0 mm 1 mps 657 mmHg 32%
    19:00 +15°C° 0 mm 1 mps 657 mmHg 38%
    20:00 +12°C° 0 mm 0 mps 657 mmHg 44%
    21:00 +13°C° 0 mm 1 mps 657 mmHg 44%
    22:00 +13°C° 0 mm 1 mps 657 mmHg 43%
    23:00 +13°C° 0 mm 1 mps 657 mmHg 42%

    28 February, Friday

    Time Temperature Precipitation Wind Pressure Humidity
    00:00 +13°C° 0 mm 1 mps 657 mmHg 43%
    01:00 +13°C° 0 mm 1 mps 656 mmHg 43%
    02:00 +12°C° 0 mm 1 mps 656 mmHg 43%
    03:00 +13°C° 0 mm 2 mps 656 mmHg 44%
    04:00 +13°C° 0 mm 2 mps 656 mmHg 44%
    05:00 +12°C° 0 mm 3 mps 656 mmHg 45%
    06:00 +12°C° 0.2 mm 2 mps 656 mmHg 50%
    07:00 +12°C° 0.2 mm 2 mps 656 mmHg 56%
    08:00 +10°C° 0.2 mm 2 mps 656 mmHg 62%
    09:00 +10°C° 1.1 mm 2 mps 656 mmHg 68%
    10:00 +9°C° 1.1 mm 2 mps 656 mmHg 75%
    11:00 +9°C° 1.1 mm 2 mps 656 mmHg 81%
    12:00 +9°C° 1 mm 2 mps 656 mmHg 80%
    13:00 +9°C° 1 mm 2 mps 656 mmHg 79%
    14:00 +10°C° 1 mm 2 mps 655 mmHg 78%
    15:00 +10°C° 0 mm 2 mps 656 mmHg 74%
    16:00 +12°C° 0 mm 2 mps 656 mmHg 70%
    17:00 +13°C° 0 mm 2 mps 656 mmHg 66%
    18:00 +13°C° 0 mm 2 mps 656 mmHg 68%
    19:00 +12°C° 0 mm 2 mps 656 mmHg 70%
    20:00 +12°C° 0 mm 2 mps 656 mmHg 72%
    21:00 +10°C° 0.3 mm 2 mps 656 mmHg 75%
    22:00 +10°C° 0.3 mm 2 mps 656 mmHg 78%
    23:00 +10°C° 0.3 mm 2 mps 656 mmHg 81%
    Show more